Location: Canazei
(46.4667°N, 11.7667°E)
Time: 19:46:52
(UTC+00:00)

X-37B - Visible Passes

Search period start: 21 September 2021 00:00
Search period end: 01 October 2021 00:00
Orbit: 381 x 393 km, 45.0° (Epoch: 29 August)

Date Brightness Start Highest point End Pass type
(mag) Time Alt. Az. Time Alt. Az. Time Alt. Az.
21 Sep 2.6 04:19:37 10° SSW 04:22:10 22° SSE 04:24:43 10° E visible
22 Sep 3.1 03:22:47 12° S 03:24:00 14° SSE 03:25:50 10° ESE visible
23 Sep 1.9 03:59:30 14° SW 04:01:52 33° SSE 04:04:46 10° E visible
24 Sep 2.5 03:03:52 22° SE 03:03:52 22° SE 03:06:11 10° E visible
25 Sep 1.2 03:40:29 30° SW 03:41:36 46° SSE 03:44:41 10° E visible
26 Sep 2.9 02:44:46 22° ESE 02:44:46 22° ESE 02:46:14 10° E visible
26 Sep 0.7 04:17:04 13° W 04:19:46 68° S 04:22:54 10° E visible
27 Sep 0.7 03:21:20 59° S 03:21:24 59° S 03:24:32 10° E visible
28 Sep 3.7 02:25:37 14° E 02:25:37 14° E 02:26:09 10° E visible
28 Sep 0.6 03:57:54 25° W 03:59:35 68° S 04:02:44 10° E visible
29 Sep 1.8 03:02:12 39° ESE 03:02:12 39° ESE 03:04:22 10° E visible
29 Sep 1.1 04:34:40 10° W 04:37:43 46° SSW 04:40:47 10° ESE visible
30 Sep 0.7 03:38:49 48° WSW 03:39:24 59° S 03:42:31 10° ESE visible
